Aérodrome :
LOGIN :

S'inscrire | Disclaimer

   EN    FR    IT 

 










Légende :    VFR   VFR Marginal   IFR   IFR Intensif   IFR Très Intensif
Visi : 
Plafond : 
>= 8 km
>= 3000ft
5 à 8 km
1000 à 3000 ft
1500m à 5 km
500 à 1000 ft
800 à 1500m
200 à 500 ft
< 800m
< 200 ft
Symboles :   Orages  Brouillard  Fortes neiges  Fortes précipitations  Vent > 20 kt
SIGMETs :   Divers  Orages  Givrage  Turbulence  Onde Orograph.  Cendres Volcan.







- Altitude de l'aérodrome : 636 ft


LPBJ - Beja Air Base

DERNIER METAR :
  • 181100Z 24009KT 9999 SCT014 BKN024 17/14 Q1015

METARs EXPIRÉS :
  • 181000Z 28006KT 9999 FEW010 SCT026 BKN030 15/14 Q1015
  • 180900Z 28006KT 9999 -RA SCT010 SCT030 15/13 Q1015

TAF COR TAF LPBJ
Valide du 18 à 06h jusqu'au 19 à 06h UTC


180737Z 1806/1906 27008KT 9999 SCT015
TEMPO 1806/1815 6000 SHRA BKN015 FEW018CB
BECMG 1819/1822 11005KT BKN025
PROB40
TEMPO 1819/1906 5000 RA BKN022
PROB40 1903/1906 31008KT BKN008
Pas de NOTAMs connus pour ce terrain.



MET'MAP, la Météo Aéronautique d'un coup d'oeil ! - Copyright ORBIFLY Décembre 2007 - Disclaimer

ORBIFLY MET'MAP TEAM :

Programmation & Développement : Alexandra Zaïnal
Conception & Développement : Baudouin d'Aumeries
Co-Programmation & Développement : Marc-Olivier Méhu
Soutien technique & logistique : Manuel Goepfert

Contact : metmap@orbifly.com




SOURCES & CREDITS :

   NOAA